Location: Cumberland Hills
(36.2801°N, 86.5833°W)
Time: 04:10:56
(UTC+00:00)

Daily predictions for brighter satellites

Satellite Brightness Start Highest point End
(mag) Time Altitude Azimuth Time Altitude Azimuth Time Altitude Azimuth
OAO 2 Rocket 3.7 00:00:14 10° WSW 00:05:02 50° SSE 00:07:50 23° E
Okean O Rocket 3.9 00:01:43 10° SSW 00:05:27 27° W 00:09:11 10° NW
SeaSat 1 3.9 00:11:24 19° NE 00:11:24 19° NE 00:14:36 10° N
Cosmos 2219 3.5 00:07:43 10° N 00:13:15 45° ENE 00:17:55 14° SE
YAOGAN 1 2.7 00:10:21 10° SSE 00:14:29 47° ENE 00:18:39 10° N
Aureole 3 3.3 00:11:36 10° SSW 00:15:03 60° W 00:18:06 10° N
S3M 4.0 00:13:53 10° SSE 00:19:47 55° E 00:25:45 10° NNE
CZ-2C R/B 3.3 00:18:09 10° SSE 00:23:53 63° ENE 00:29:31 10° N
Cosmos 1315 Rocket 3.1 00:21:02 10° SSE 00:24:27 42° ESE 00:24:27 42° ESE
Cosmos 1892 2.8 00:21:10 10° N 00:24:58 51° E 00:26:13 35° SE
Cosmos 968 Rocket 3.8 00:22:23 10° N 00:27:18 40° ENE 00:28:16 36° E
CZ-2D R/B 3.5 00:23:33 10° S 00:27:20 67° W 00:31:08 10° NNW
Delta 2 Rocket 4.1 00:23:43 10° W 00:29:04 72° SSW 00:31:32 34° ESE
Cosmos 2369 3.9 00:24:14 10° S 00:29:40 48° ESE 00:32:24 27° NE
Cosmos 1346 Rocket 4.2 00:26:28 10° N 00:28:23 24° NNE 00:28:23 24° NNE
Timation 2 Rocket 4.1 00:23:51 10° NNW 00:30:33 87° WSW 00:37:24 10° SSE
NOAA 15 4.5 00:25:50 10° SSE 00:31:06 77° ENE 00:36:26 10° N
Atlas Centaur 2 3.5 00:23:17 10° WSW 00:31:21 49° SSE 00:35:21 29° ESE
Cosmos 1417 Rocket 4.4 00:25:20 10° S 00:31:33 88° E 00:37:53 10° N
Meteor 2-10 Rocket 3.4 00:27:34 10° S 00:32:58 76° E 00:38:11 10° NNE
CRYOSAT 2 4.3 00:29:12 10° NNE 00:34:01 60° E 00:38:47 10° S
Okean-O 2.8 00:31:15 10° S 00:35:40 73° W 00:40:05 10° NNW
ARGOS 3.5 00:36:34 40° ENE 00:36:48 41° ENE 00:41:50 10° N
NOSS 3-3 (A) 3.7 00:32:20 10° SSW 00:37:56 77° ESE 00:41:50 24° NE
NOSS 3-3 (C) 3.7 00:32:24 10° SSW 00:38:04 77° ESE 00:41:57 24° NE
Cosmos 1486 Rocket 4.0 00:34:27 10° N 00:39:42 56° ENE 00:41:03 44° ESE
Meteor 2-1 Rocket 4.0 00:35:41 10° S 00:41:11 77° E 00:46:42 10° NNE
Cosmos 1656 4.4 00:40:18 10° SW 00:45:40 52° WNW 00:51:10 10° NNE
SJ-11-01 4.1 00:46:20 50° SE 00:47:29 72° ENE 00:52:09 10° N
MOS 1 Rocket 3.4 00:44:20 10° N 00:49:03 80° WNW 00:54:03 10° SSW
Cosmos 2227 Rocket 2.0 00:44:01 10° NNW 00:49:41 70° ENE 00:51:13 48° SE
CSL-04 Rocket 3.6 00:46:14 10° SSE 00:51:46 78° ENE 00:57:19 10° N
ATLAS 2AS CENTAUR R/B 4.5 00:50:09 10° N 00:54:13 16° NNE 00:54:13 16° NNE
SL-08 ROCKET BODY 4.5 00:49:17 10° N 00:55:25 80° W 01:01:35 10° S
GEOS 3 Rocket 3.6 00:57:17 62° ENE 00:57:24 62° NE 01:02:42 10° NNW
OAO 3 Rocket 3.7 00:56:25 10° W 01:01:00 47° SSW 01:01:04 47° SSW
Cosmos 1697 Rocket 2.8 00:57:16 10° SSW 01:02:50 73° WNW 01:05:59 27° NNE
H-2A R/B 2.2 01:03:04 16° S 01:07:27 75° WSW 01:12:54 10° NNW
OAO 1 Rocket 4.4 01:02:53 10° WSW 01:07:59 73° SSW 01:07:59 73° SSW
Cosmos 1455 4.3 01:17:50 10° SW 01:19:52 23° WSW 01:19:52 23° WSW
CZ-4 R/B 4.1 01:21:55 10° SW 01:24:36 18° W 01:27:17 10° NW
Cosmos 1980 Rocket 3.1 01:19:01 10° SSW 01:22:19 37° SSW 01:22:19 37° SSW
Cosmos 2297 Rocket 3.3 01:24:25 10° NW 01:29:42 41° WSW 01:32:04 28° SSW
Milstar 3 3.4 01:28:40 10° WSW 01:34:44 45° S 01:34:44 45° S
SeaSat 1 4.4 01:51:12 24° NW 01:51:12 24° NW 01:53:12 10° NNW
Atlas Centaur 2 4.0 02:12:34 10° WSW 02:17:56 39° WSW 02:17:56 39° WSW
CENTAUR R/B 3.8 08:57:16 34° NE 08:57:16 34° NE 09:01:01 10° NE
CZ-2C R/B 4.5 09:02:59 10° NNE 09:05:23 23° NE 09:05:23 23° NE
Cosmos 1833 Rocket 4.4 09:08:56 24° SE 09:10:35 28° ESE 09:15:20 10° NE
Lacrosse 5 rocket 4.3 09:22:55 12° ENE 09:22:55 12° ENE 09:23:12 10° NE
Cosmos 2344 4.0 09:26:59 45° NNW 09:26:59 45° NNW 09:33:03 10° NNE
Cosmos 2082 Rocket 4.4 09:25:29 10° SSE 09:29:41 22° E 09:33:55 10° NE
ATLAS 3B R/B 3.5 09:36:11 17° S 09:40:51 45° ESE 09:47:05 10° NE
COSMOS 2406 3.1 09:48:10 77° S 09:48:34 85° ESE 09:54:15 10° NNE
Cosmos 2279 Rocket 3.8 09:45:35 10° N 09:51:48 89° W 09:57:59 10° S
Cosmos 292 Rocket 3.7 09:57:37 84° NE 09:57:41 84° ENE 10:02:32 10° SSE
ADEOS Rocket 2.6 09:53:00 10° SSE 09:58:33 87° ENE 10:04:05 10° NNW
Cosmos 1697 Rocket 4.3 09:53:51 10° N 09:58:55 33° ENE 10:03:58 10° SE
ERS-2 3.4 10:00:00 10° SE 10:03:24 39° ENE 10:05:48 17° N
BREEZE-M DEB (TANK) 3.7 10:04:38 26° ENE 10:04:38 26° ENE 10:05:54 10° E
NOSS 3-3 (A) 4.5 10:00:01 28° NW 10:04:43 76° WSW 10:13:14 10° SSE
NOSS 3-3 (C) 4.5 10:00:13 28° NW 10:04:47 76° WSW 10:13:12 10° SSE
Cosmos 44 Rocket 4.0 10:04:22 23° NNW 10:07:27 56° ENE 10:12:33 10° SE
Cosmos 1908 3.4 10:08:36 64° NE 10:09:02 71° E 10:12:54 10° SSE
Cosmos 1461 3.2 10:10:10 47° S 10:11:23 74° ESE 10:16:02 10° NNE
CBERS 1 LM4 rocket 4.2 10:07:52 10° N 10:12:45 74° WNW 10:14:27 40° SSW
FENGYUN 3A 4.0 10:08:28 10° NNE 10:13:54 67° ESE 10:19:17 10° S
Cosmos 2251 Rocket 4.4 10:10:26 10° S 10:15:36 50° ESE 10:20:46 10° NNE
SL-14 R/B 4.2 10:12:09 10° SSE 10:15:58 50° E 10:19:50 10° NNE
ISS -2.1 10:19:03 26° NNE 10:19:03 26° NNE 10:20:53 10° NE
Cosmos 1980 Rocket 4.2 10:16:06 10° N 10:20:45 26° ENE 10:25:22 10° ESE
USA 290 3.6 10:18:28 14° S 10:20:53 39° ESE 10:23:55 10° NE
DELTA 2 R/B (1) 3.5 10:24:51 42° W 10:26:46 75° SSW 10:32:21 10° ESE
Cosmos 1300 4.4 10:25:19 10° NNE 10:28:49 34° E 10:32:18 10° SE
CZ-2C R/B 3.1 10:30:29 14° S 10:30:29 14° S 10:31:28 10° SSE
Lacrosse 4 Rocket 3.3 10:33:26 15° NNW 10:33:26 15° NNW 10:34:35 10° N
NOSS 3-2 (C) 4.5 10:31:39 23° NW 10:31:59 24° NW 10:37:00 10° N
ALOS 2.1 10:30:09 10° N 10:34:49 76° WNW 10:39:28 10° SSW
Cosmos 1626 2.0 10:36:39 10° SSW 10:40:16 57° W 10:43:55 10° N
Cosmos 1484 Rocket 2.7 10:37:08 10° N 10:40:55 57° WNW 10:44:36 10° SSW
CZ-2C R/B 3.5 10:41:31 10° NNW 10:44:45 23° NW 10:44:45 23° NW
CENTAUR R/B 3.7 10:44:30 20° WNW 10:45:54 22° NW 10:51:04 10° N
Cosmos 2228 2.9 10:45:47 10° N 10:50:10 86° W 10:54:33 10° S
CZ-4B R/B 3.3 10:46:51 10° NNE 10:50:54 68° ESE 10:55:09 10° S
Cosmos 1092 Rocket 3.9 10:46:03 10° S 10:52:11 79° W 10:58:25 10° N
Cosmos 1606 Rocket 3.5 10:48:49 10° N 10:53:19 84° W 10:57:46 10° S
ADEOS 3.8 10:48:50 10° N 10:53:49 47° WNW 10:58:47 10° SW
Cosmos 1833 Rocket 3.3 10:50:45 18° WSW 10:54:19 35° WNW 10:59:29 10° N
COSMO-SKYMED 1 3.1 10:51:15 10° SSE 10:55:32 62° ENE 10:59:50 10° N
Nadezhda 4 Rocket 4.3 10:52:45 10° SSW 10:58:25 40° WNW 11:04:09 10° N
Lacrosse 5 rocket 2.6 10:58:35 19° NW 10:59:01 19° NW 11:01:45 10° N
Cosmos 1302 Rocket 4.5 10:54:43 10° NW 10:59:35 37° W 11:04:23 10° SSW
Geosat 4.1 10:54:52 10° S 10:59:44 51° WSW 11:04:38 10° NW
H-2A R/B 4.0 10:56:56 10° SW 10:57:55 13° SW 10:57:55 13° SW
Meteor 1-24 Rocket 3.7 10:55:36 10° SSW 11:01:05 64° W 11:06:48 10° N
CZ-3 R/B 3.2 10:42:22 15° WSW 11:02:11 58° S 11:08:47 10° ESE
ATLAS CENTAUR R/B 4.2 10:59:46 10° SSE 11:02:43 20° ESE 11:05:35 10° ENE
Meteor 1-31 Rocket 3.2 11:01:18 10° N 11:04:59 39° WNW 11:08:39 10° SW
Meteor PRIRODA 3.5 11:04:03 10° N 11:07:42 84° WNW 11:11:22 10° SSW
CZ-4B R/B 2.3 11:07:24 10° SSW 11:10:27 29° W 11:13:30 10° NW
Cosmos 2369 3.6 11:05:22 10° NNW 11:11:01 71° WSW 11:16:36 10° SSE
Cosmos 2082 Rocket 2.5 11:08:07 10° SW 11:13:25 43° WNW 11:18:45 10° N
Okean 1-7 Rocket 3.6 11:09:47 10° S 11:14:20 78° W 11:18:54 10° N
ASTRO F (AKARI) 4.4 11:17:04 10° N 11:20:31 58° WNW 11:23:46 10° SSW
Cosmos 220 Rocket 4.2 11:17:26 10° NNW 11:21:44 51° WSW 11:25:59 10° S
Cosmos 2058 Rocket 3.1 11:19:20 10° N 11:23:50 81° W 11:28:16 10° S
Gblst 52 Del rocket 4.5 11:19:44 10° SW 11:25:18 77° SE 11:31:32 10° NE
SL-16 R/B 4.3 11:21:44 10° N 11:26:27 26° ENE 11:31:08 10° ESE
Cosmos 1892 Rocket 4.2 11:26:14 10° SW 11:30:09 33° WNW 11:34:06 10° NNW
Spot 2 4.3 11:26:42 10° NNE 11:31:17 86° WNW 11:36:09 10° SSW
ATLAS 3B R/B 3.3 11:25:50 10° WSW 11:31:38 32° NW 11:37:31 10° NNE
Cosmos 2084 4.0 11:28:22 10° WSW 11:32:23 38° NW 11:36:30 10° NNE
Cosmos 1400 Rocket 3.1 11:29:47 10° NNW 11:33:31 43° W 11:37:11 10° SSW
YAOGAN 6 3.5 11:33:28 10° NNE 11:37:06 55° E 11:40:40 10° S
ERS-2 4.1 11:36:32 10° WSW 11:37:06 10° W 11:37:39 10° W
H-2A R/B 2.6 11:35:36 10° NNE 11:39:59 87° ESE 11:44:11 10° SSW
Cosmos 1992 Rocket 4.4 11:35:19 10° NNW 11:40:11 41° WSW 11:45:01 10° S
Meteor 1-21 Rocket 4.5 11:37:13 10° S 11:42:58 83° E 11:48:52 10° N
